| time (UTC) | temp F | wind direction | speed MPH | gust MPH | rain 1hr in | rain 24hr in | rain mn in | humidity % | barometer mb |
| 20260506014013 | 68 | 315 | 3.0 | 11.0 | 0.00 | 0.00 | 0.00 | 38 | 1015.5 |
| 20260506013513 | 69 | 342 | 5.0 | 11.0 | 0.00 | 0.00 | 0.00 | 38 | 1015.4 |
| 20260506013033 | 69 | 303 | 2.0 | 11.0 | 0.00 | 0.00 | 0.00 | 40 | 1015.5 |
| 20260506012512 | 69 | 350 | 4.0 | 11.0 | 0.00 | 0.00 | 0.00 | 40 | 1015.2 |
| 20260506012012 | 69 | 309 | 1.0 | 9.0 | 0.00 | 0.00 | 0.00 | 42 | 1015.4 |
| 20260506011530 | 69 | 333 | 3.0 | 10.0 | 0.00 | 0.00 | 0.00 | 42 | 1015.2 |
| 20260506011009 | 69 | 306 | 2.0 | 10.0 | 0.00 | 0.00 | 0.00 | 42 | 1015.2 |
| 20260506010513 | 69 | 355 | 2.0 | 10.0 | 0.00 | 0.00 | 0.00 | 41 | 1015.2 |
| 20260506010035 | 69 | 331 | 4.0 | 11.0 | 0.00 | 0.00 | 0.00 | 41 | 1015.2 |
| 20260506005513 | 69 | 41 | 2.0 | 11.0 | 0.00 | 0.00 | 0.00 | 41 | 1015.1 |
| 20260506005014 | 69 | 323 | 3.0 | 12.0 | 0.00 | 0.00 | 0.00 | 41 | 1015.1 |
| 20260506004530 | 69 | 41 | 3.0 | 12.0 | 0.00 | 0.00 | 0.00 | 40 | 1015.2 |
| 20260506004013 | 70 | 290 | 4.0 | 15.0 | 0.00 | 0.00 | 0.00 | 40 | 1015.1 |
| 20260506003517 | 70 | 309 | 5.0 | 15.0 | 0.00 | 0.00 | 0.00 | 37 | 1014.9 |
| 20260506003032 | 71 | 57 | 3.0 | 12.0 | 0.00 | 0.00 | 0.00 | 36 | 1014.7 |
| 20260506002512 | 71 | 254 | 2.0 | 10.0 | 0.00 | 0.00 | 0.00 | 37 | 1014.9 |
| 20260506002012 | 71 | 311 | 4.0 | 10.0 | 0.00 | 0.00 | 0.00 | 38 | 1014.8 |
| 20260506001531 | 71 | 300 | 2.0 | 6.0 | 0.00 | 0.00 | 0.00 | 38 | 1014.7 |
| 20260506001013 | 71 | 314 | 2.0 | 8.0 | 0.00 | 0.00 | 0.00 | 38 | 1014.6 |
| 20260506000512 | 71 | 325 | 1.0 | 12.0 | 0.00 | 0.00 | 0.00 | 38 | 1014.8 |
| 20260506000033 | 72 | 15 | 5.0 | 12.0 | 0.00 | 0.00 | 0.00 | 36 | 1014.7 |
| 20260505235513 | 72 | 341 | 1.0 | 9.0 | 0.00 | 0.00 | 0.00 | 35 | 1014.7 |
| 20260505235013 | 73 | 0 | 2.0 | 10.0 | 0.00 | 0.00 | 0.00 | 35 | 1014.6 |
| 20260505234530 | 73 | 36 | 2.0 | 10.0 | 0.00 | 0.00 | 0.00 | 34 | 1014.7 |
| 20260505234016 | 74 | 41 | 3.0 | 8.0 | 0.00 | 0.00 | 0.00 | 34 | 1014.7 |
| 20260505233514 | 73 | 15 | 2.0 | 7.0 | 0.00 | 0.00 | 0.00 | 37 | 1014.6 |
| 20260505233030 | 73 | 292 | 2.0 | 5.0 | 0.00 | 0.00 | 0.00 | 38 | 1014.6 |
| 20260505232512 | 72 | 292 | 2.0 | 7.0 | 0.00 | 0.00 | 0.00 | 38 | 1014.7 |
| 20260505232017 | 72 | 310 | 2.0 | 7.0 | 0.00 | 0.00 | 0.00 | 38 | 1014.7 |
| 20260505231547 | 73 | 278 | 3.0 | 7.0 | 0.00 | 0.00 | 0.00 | 36 | 1014.7 |
| 20260505231016 | 73 | 254 | 1.0 | 5.0 | 0.00 | 0.00 | 0.00 | 37 | 1014.6 |
| 20260505230514 | 74 | 217 | 2.0 | 8.0 | 0.00 | 0.00 | 0.00 | 38 | 1014.5 |
| 20260505230030 | 74 | 10 | 2.0 | 10.0 | 0.00 | 0.00 | 0.00 | 36 | 1014.6 |
| 20260505225513 | 74 | 236 | 5.0 | 10.0 | 0.00 | 0.00 | 0.00 | 37 | 1014.6 |
| 20260505225012 | 74 | 5 | 2.0 | 7.0 | 0.00 | 0.00 | 0.00 | 37 | 1014.6 |
| 20260505224532 | 74 | 0 | 2.0 | 10.0 | 0.00 | 0.00 | 0.00 | 37 | 1014.7 |
| 20260505224011 | 74 | 248 | 1.0 | 10.0 | 0.00 | 0.00 | 0.00 | 37 | 1014.8 |
| 20260505223513 | 74 | 0 | 2.0 | 10.0 | 0.00 | 0.00 | 0.00 | 37 | 1014.7 |
| 20260505223031 | 75 | 285 | 3.0 | 10.0 | 0.00 | 0.00 | 0.00 | 36 | 1014.8 |
| 20260505222517 | 76 | 289 | 4.0 | 12.0 | 0.00 | 0.00 | 0.00 | 33 | 1014.6 |
| 20260505222013 | 76 | 286 | 5.0 | 13.0 | 0.00 | 0.00 | 0.00 | 36 | 1014.6 |
| 20260505221530 | 75 | 269 | 6.0 | 13.0 | 0.00 | 0.00 | 0.00 | 36 | 1014.8 |
| 20260505221012 | 74 | 312 | 6.0 | 13.0 | 0.00 | 0.00 | 0.00 | 37 | 1014.8 |
| 20260505220515 | 73 | 274 | 2.0 | 5.0 | 0.00 | 0.00 | 0.00 | 35 | 1014.6 |
| 20260505220032 | 73 | 355 | 3.0 | 5.0 | 0.00 | 0.00 | 0.00 | 36 | 1014.8 |
| 20260505215512 | 72 | 320 | 2.0 | 5.0 | 0.00 | 0.00 | 0.00 | 36 | 1014.7 |
| 20260505215014 | 72 | 322 | 1.0 | 8.0 | 0.00 | 0.00 | 0.00 | 36 | 1014.9 |
| 20260505214540 | 72 | 321 | 1.0 | 17.0 | 0.00 | 0.00 | 0.00 | 37 | 1014.9 |
| 20260505214018 | 72 | 322 | 3.0 | 17.0 | 0.00 | 0.00 | 0.00 | 35 | 1014.8 |
| 20260505213512 | 73 | 33 | 7.0 | 17.0 | 0.00 | 0.00 | 0.00 | 35 | 1014.7 |
| 20260505213037 | 73 | 252 | 3.0 | 7.0 | 0.00 | 0.00 | 0.00 | 35 | 1014.8 |
| 20260505212514 | 73 | 275 | 2.0 | 6.0 | 0.00 | 0.00 | 0.00 | 35 | 1014.9 |
| 20260505212011 | 73 | 294 | 2.0 | 9.0 | 0.00 | 0.00 | 0.00 | 36 | 1014.8 |
| 20260505211532 | 73 | 115 | 4.0 | 10.0 | 0.00 | 0.00 | 0.00 | 35 | 1014.8 |
| 20260505211013 | 74 | 17 | 1.0 | 13.0 | 0.00 | 0.00 | 0.00 | 34 | 1014.8 |
| 20260505210513 | 75 | 157 | 2.0 | 13.0 | 0.00 | 0.00 | 0.00 | 34 | 1014.8 |
| 20260505210030 | 75 | 90 | 5.0 | 13.0 | 0.00 | 0.00 | 0.00 | 34 | 1014.9 |
| 20260505205518 | 75 | 360 | 3.0 | 11.0 | 0.00 | 0.00 | 0.00 | 34 | 1014.8 |
| 20260505205011 | 74 | 60 | 4.0 | 11.0 | 0.00 | 0.00 | 0.00 | 34 | 1014.8 |
| 20260505204530 | 74 | 68 | 4.0 | 10.0 | 0.00 | 0.00 | 0.00 | 34 | 1014.8 |
| 20260505204014 | 74 | 54 | 4.0 | 11.0 | 0.00 | 0.00 | 0.00 | 33 | 1014.8 |
| 20260505203514 | 74 | 321 | 2.0 | 12.0 | 0.00 | 0.00 | 0.00 | 34 | 1014.6 |
| 20260505203050 | 74 | 315 | 4.0 | 12.0 | 0.00 | 0.00 | 0.00 | 33 | 1014.8 |
| 20260505202514 | 75 | 139 | 3.0 | 13.0 | 0.00 | 0.00 | 0.00 | 32 | 1014.8 |
| 20260505202012 | 74 | 312 | 3.0 | 13.0 | 0.00 | 0.00 | 0.00 | 33 | 1014.8 |
| 20260505201533 | 73 | 11 | 3.0 | 12.0 | 0.00 | 0.00 | 0.00 | 34 | 1014.9 |
| 20260505201016 | 73 | 88 | 4.0 | 11.0 | 0.00 | 0.00 | 0.00 | 35 | 1014.9 |
| 20260505200512 | 73 | 355 | 4.0 | 11.0 | 0.00 | 0.00 | 0.00 | 34 | 1014.8 |
| 20260505200029 | 73 | 124 | 5.0 | 11.0 | 0.00 | 0.00 | 0.00 | 34 | 1014.8 |
| 20260505195515 | 73 | 65 | 3.0 | 11.0 | 0.00 | 0.00 | 0.00 | 36 | 1014.8 |
| 20260505195014 | 72 | 314 | 2.0 | 9.0 | 0.00 | 0.00 | 0.00 | 37 | 1015.0 |
| 20260505194532 | 72 | 5 | 3.0 | 10.0 | 0.00 | 0.00 | 0.00 | 35 | 1014.9 |
| 20260505194015 | 72 | 57 | 3.0 | 11.0 | 0.00 | 0.00 | 0.00 | 35 | 1015.1 |
| 20260505193512 | 73 | 56 | 5.0 | 12.0 | 0.00 | 0.00 | 0.00 | 34 | 1015.1 |
| 20260505193034 | 73 | 138 | 3.0 | 12.0 | 0.00 | 0.00 | 0.00 | 35 | 1014.9 |
| 20260505192513 | 73 | 5 | 4.0 | 12.0 | 0.00 | 0.00 | 0.00 | 34 | 1015.0 |
| 20260505192014 | 73 | 105 | 3.0 | 12.0 | 0.00 | 0.00 | 0.00 | 35 | 1015.2 |
| 20260505191532 | 73 | 184 | 3.0 | 12.0 | 0.00 | 0.00 | 0.00 | 34 | 1015.1 |
| 20260505191013 | 73 | 355 | 4.0 | 12.0 | 0.00 | 0.00 | 0.00 | 36 | 1014.9 |
| 20260505190513 | 73 | 20 | 3.0 | 8.0 | 0.00 | 0.00 | 0.00 | 36 | 1015.0 |
| 20260505190034 | 72 | 352 | 2.0 | 10.0 | 0.00 | 0.00 | 0.00 | 36 | 1015.1 |
| 20260505185518 | 72 | 109 | 2.0 | 10.0 | 0.00 | 0.00 | 0.00 | 37 | 1015.1 |
| 20260505185012 | 72 | 334 | 4.0 | 10.0 | 0.00 | 0.00 | 0.00 | 36 | 1015.2 |
| 20260505184535 | 72 | 27 | 3.0 | 10.0 | 0.00 | 0.00 | 0.00 | 37 | 1015.0 |
| 20260505184012 | 71 | 114 | 2.0 | 7.0 | 0.00 | 0.00 | 0.00 | 37 | 1014.9 |
| 20260505183512 | 71 | 138 | 2.0 | 8.0 | 0.00 | 0.00 | 0.00 | 38 | 1015.0 |
| 20260505183031 | 70 | 171 | 1.0 | 8.0 | 0.00 | 0.00 | 0.00 | 40 | 1014.9 |
| 20260505182513 | 70 | 38 | 3.0 | 8.0 | 0.00 | 0.00 | 0.00 | 40 | 1015.0 |
| 20260505182012 | 70 | 0 | 1.0 | 5.0 | 0.00 | 0.00 | 0.00 | 40 | 1015.0 |
| 20260505181538 | 70 | 0 | 1.0 | 5.0 | 0.00 | 0.00 | 0.00 | 40 | 1015.2 |
| 20260505181013 | 69 | 108 | 0.0 | 7.0 | 0.00 | 0.00 | 0.00 | 42 | 1015.0 |
| 20260505180511 | 69 | 120 | 2.0 | 7.0 | 0.00 | 0.00 | 0.00 | 40 | 1015.1 |
| 20260505180033 | 68 | 112 | 1.0 | 7.0 | 0.00 | 0.00 | 0.00 | 41 | 1015.1 |
| 20260505175513 | 68 | 342 | 1.0 | 7.0 | 0.00 | 0.00 | 0.00 | 41 | 1015.1 |
| 20260505175011 | 68 | 40 | 3.0 | 7.0 | 0.00 | 0.00 | 0.00 | 42 | 1015.2 |
| 20260505174539 | 67 | 301 | 1.0 | 6.0 | 0.00 | 0.00 | 0.00 | 43 | 1015.2 |
| 20260505174014 | 67 | 307 | 1.0 | 6.0 | 0.00 | 0.00 | 0.00 | 44 | 1015.2 |
| 20260505173513 | 67 | 61 | 2.0 | 6.0 | 0.00 | 0.00 | 0.00 | 43 | 1015.3 |
| 20260505173032 | 66 | 69 | 1.0 | 5.0 | 0.00 | 0.00 | 0.00 | 45 | 1015.3 |
| 20260505172515 | 65 | 306 | 0.0 | 4.0 | 0.00 | 0.00 | 0.00 | 45 | 1015.2 |
| 20260505172013 | 64 | 96 | 1.0 | 7.0 | 0.00 | 0.00 | 0.00 | 46 | 1015.2 |
| 20260505171529 | 64 | 75 | 1.0 | 7.0 | 0.00 | 0.00 | 0.00 | 44 | 1015.4 |
| 20260505171013 | 63 | 107 | 2.0 | 7.0 | 0.00 | 0.00 | 0.00 | 45 | 1015.3 |
| 20260505170513 | 63 | 0 | 2.0 | 6.0 | 0.00 | 0.00 | 0.00 | 48 | 1015.2 |
| 20260505170036 | 63 | 100 | 0.0 | 4.0 | 0.00 | 0.00 | 0.00 | 48 | 1015.2 |
| 20260505165513 | 62 | 0 | 1.0 | 4.0 | 0.00 | 0.00 | 0.00 | 49 | 1015.2 |
| 20260505165013 | 61 | 34 | 1.0 | 3.0 | 0.00 | 0.00 | 0.00 | 50 | 1015.1 |
| 20260505164532 | 61 | 9 | 1.0 | 3.0 | 0.00 | 0.00 | 0.00 | 53 | 1015.0 |
| 20260505164012 | 60 | 0 | 0.0 | 3.0 | 0.00 | 0.00 | 0.00 | 57 | 1015.1 |
| 20260505163514 | 59 | 10 | 1.0 | 4.0 | 0.00 | 0.00 | 0.00 | 58 | 1015.1 |
| 20260505163035 | 59 | 10 | 1.0 | 4.0 | 0.00 | 0.00 | 0.00 | 60 | 1015.1 |
| 20260505162514 | 59 | 5 | 1.0 | 3.0 | 0.00 | 0.00 | 0.00 | 60 | 1015.2 |
| 20260505162013 | 58 | 88 | 1.0 | 3.0 | 0.00 | 0.00 | 0.00 | 62 | 1015.1 |
| 20260505161530 | 58 | 0 | 0.0 | 2.0 | 0.00 | 0.00 | 0.00 | 63 | 1015.2 |
| 20260505161011 | 57 | 123 | 0.0 | 3.0 | 0.00 | 0.00 | 0.00 | 63 | 1015.3 |
| 20260505160511 | 57 | 170 | 1.0 | 3.0 | 0.00 | 0.00 | 0.00 | 66 | 1015.2 |
| 20260505153030 | 51 | 142 | 2.0 | 4.0 | 0.00 | 0.00 | 0.00 | 77 | 1015.2 |
| 20260505152512 | 49 | 330 | 0.0 | 2.0 | 0.00 | 0.00 | 0.00 | 80 | 1015.3 |
| 20260505152017 | 48 | 19 | 0.0 | 2.0 | 0.00 | 0.00 | 0.00 | 83 | 1015.1 |
| 20260505151545 | 46 | 20 | 0.0 | 2.0 | 0.00 | 0.00 | 0.00 | 84 | 1015.1 |
| 20260505151013 | 45 | 0 | 0.0 | 1.0 | 0.00 | 0.00 | 0.00 | 87 | 1015.1 |
| 20260505150517 | 43 | 0 | 0.0 | 0.0 | 0.00 | 0.00 | 0.00 | 90 | 1015.0 |
| 20260505140514 | 32 | 0 | 0.0 | 1.0 | 0.00 | 0.00 | 0.00 | 90 | 1015.0 |
| 20260505125014 | 31 | 0 | 0.0 | 0.0 | 0.00 | 0.00 | 0.00 | 89 | 1014.5 |
| 20260505124529 | 31 | 0 | 0.0 | 0.0 | 0.00 | 0.00 | 0.00 | 89 | 1014.5 |
| 20260505124015 | 31 | 0 | 0.0 | 0.0 | 0.00 | 0.00 | 0.00 | 89 | 1014.4 |
| 20260505123514 | 31 | 0 | 0.0 | 0.0 | 0.00 | 0.00 | 0.00 | 89 | 1014.5 |
| 20260505123031 | 31 | 0 | 0.0 | 0.0 | 0.00 | 0.00 | 0.00 | 89 | 1014.5 |
| 20260505122514 | 32 | 0 | 0.0 | 0.0 | 0.00 | 0.00 | 0.00 | 89 | 1014.4 |
| 20260505122014 | 32 | 0 | 0.0 | 0.0 | 0.00 | 0.00 | 0.00 | 88 | 1014.3 |
| 20260505121532 | 32 | 0 | 0.0 | 0.0 | 0.00 | 0.00 | 0.00 | 89 | 1014.5 |
| 20260505121012 | 32 | 0 | 0.0 | 0.0 | 0.00 | 0.00 | 0.00 | 88 | 1014.3 |
| 20260505120517 | 32 | 0 | 0.0 | 0.0 | 0.00 | 0.00 | 0.00 | 88 | 1014.3 |
| 20260505120030 | 32 | 0 | 0.0 | 0.0 | 0.00 | 0.00 | 0.00 | 88 | 1014.2 |
| 20260505115515 | 32 | 0 | 0.0 | 0.0 | 0.00 | 0.00 | 0.00 | 88 | 1014.3 |
| 20260505115012 | 33 | 0 | 0.0 | 0.0 | 0.00 | 0.00 | 0.00 | 89 | 1014.3 |
| 20260505114535 | 33 | 0 | 0.0 | 0.0 | 0.00 | 0.00 | 0.00 | 88 | 1014.1 |
| 20260505114016 | 33 | 0 | 0.0 | 0.0 | 0.00 | 0.00 | 0.00 | 88 | 1014.0 |
| 20260505113513 | 33 | 0 | 0.0 | 0.0 | 0.00 | 0.00 | 0.00 | 88 | 1014.2 |
| 20260505113030 | 33 | 0 | 0.0 | 0.0 | 0.00 | 0.00 | 0.00 | 88 | 1014.2 |
| 20260505112516 | 33 | 0 | 0.0 | 0.0 | 0.00 | 0.00 | 0.00 | 88 | 1014.1 |
| 20260505112012 | 33 | 0 | 0.0 | 0.0 | 0.00 | 0.00 | 0.00 | 88 | 1014.1 |
| 20260505111532 | 34 | 0 | 0.0 | 0.0 | 0.00 | 0.00 | 0.00 | 88 | 1014.0 |
| 20260505111013 | 34 | 0 | 0.0 | 0.0 | 0.00 | 0.00 | 0.00 | 88 | 1014.0 |
| 20260505110514 | 34 | 0 | 0.0 | 0.0 | 0.00 | 0.00 | 0.00 | 88 | 1014.0 |
| 20260505102011 | 36 | 0 | 0.0 | 0.0 | 0.00 | 0.00 | 0.00 | 88 | 1013.7 |
| 20260505101534 | 36 | 0 | 0.0 | 0.0 | 0.00 | 0.00 | 0.00 | 88 | 1013.7 |
| 20260505101011 | 36 | 0 | 0.0 | 0.0 | 0.00 | 0.00 | 0.00 | 87 | 1013.6 |
| 20260505100511 | 36 | 0 | 0.0 | 0.0 | 0.00 | 0.00 | 0.00 | 87 | 1013.6 |
| 20260505100034 | 36 | 0 | 0.0 | 0.0 | 0.00 | 0.00 | 0.00 | 87 | 1013.7 |
| 20260505095512 | 36 | 0 | 0.0 | 0.0 | 0.00 | 0.00 | 0.00 | 86 | 1013.7 |
| 20260505095012 | 37 | 0 | 0.0 | 0.0 | 0.00 | 0.00 | 0.00 | 86 | 1013.6 |
| 20260505094530 | 37 | 0 | 0.0 | 0.0 | 0.00 | 0.00 | 0.00 | 86 | 1013.7 |
| 20260505094013 | 37 | 0 | 0.0 | 0.0 | 0.00 | 0.00 | 0.00 | 86 | 1013.7 |
| 20260505093512 | 37 | 0 | 0.0 | 0.0 | 0.00 | 0.00 | 0.00 | 86 | 1013.7 |
| 20260505093040 | 38 | 0 | 0.0 | 0.0 | 0.00 | 0.00 | 0.00 | 86 | 1013.8 |
| 20260505092516 | 38 | 0 | 0.0 | 0.0 | 0.00 | 0.00 | 0.00 | 86 | 1013.9 |
| 20260505092013 | 38 | 0 | 0.0 | 0.0 | 0.00 | 0.00 | 0.00 | 86 | 1013.9 |
| 20260505091530 | 38 | 0 | 0.0 | 0.0 | 0.00 | 0.00 | 0.00 | 85 | 1013.7 |
| 20260505091014 | 38 | 0 | 0.0 | 0.0 | 0.00 | 0.00 | 0.00 | 85 | 1013.8 |
| 20260505090512 | 39 | 0 | 0.0 | 0.0 | 0.00 | 0.00 | 0.00 | 85 | 1013.8 |
| 20260505090038 | 39 | 0 | 0.0 | 0.0 | 0.00 | 0.00 | 0.00 | 85 | 1013.7 |
| 20260505085514 | 39 | 0 | 0.0 | 0.0 | 0.00 | 0.00 | 0.00 | 84 | 1013.6 |
| 20260505085017 | 40 | 0 | 0.0 | 0.0 | 0.00 | 0.00 | 0.00 | 85 | 1013.6 |
| 20260505084530 | 40 | 0 | 0.0 | 0.0 | 0.00 | 0.00 | 0.00 | 84 | 1013.6 |
| 20260505084012 | 40 | 0 | 0.0 | 0.0 | 0.00 | 0.00 | 0.00 | 84 | 1013.7 |
| 20260505083513 | 41 | 0 | 0.0 | 0.0 | 0.00 | 0.00 | 0.00 | 84 | 1013.8 |
| 20260505083033 | 41 | 0 | 0.0 | 0.0 | 0.00 | 0.00 | 0.00 | 83 | 1013.7 |
| 20260505082511 | 41 | 0 | 0.0 | 0.0 | 0.00 | 0.00 | 0.00 | 83 | 1013.8 |
| 20260505082012 | 41 | 0 | 0.0 | 0.0 | 0.00 | 0.00 | 0.00 | 83 | 1013.7 |
| 20260505081532 | 42 | 0 | 0.0 | 0.0 | 0.00 | 0.00 | 0.00 | 83 | 1013.8 |
| 20260505081013 | 42 | 0 | 0.0 | 0.0 | 0.00 | 0.00 | 0.00 | 82 | 1013.7 |
| 20260505080513 | 42 | 0 | 0.0 | 0.0 | 0.00 | 0.00 | 0.00 | 82 | 1013.7 |
| 20260505080031 | 43 | 0 | 0.0 | 1.0 | 0.00 | 0.00 | 0.00 | 82 | 1013.7 |
| 20260505075514 | 43 | 0 | 0.0 | 1.0 | 0.00 | 0.00 | 0.00 | 81 | 1013.6 |
| 20260505075013 | 44 | 294 | 0.0 | 1.0 | 0.00 | 0.00 | 0.00 | 80 | 1013.7 |
| 20260505074530 | 44 | 0 | 0.0 | 1.0 | 0.00 | 0.00 | 0.00 | 80 | 1013.8 |
| 20260505074011 | 44 | 0 | 0.0 | 1.0 | 0.00 | 0.00 | 0.00 | 80 | 1013.7 |
| 20260505073513 | 45 | 0 | 0.0 | 1.0 | 0.00 | 0.00 | 0.00 | 79 | 1013.7 |
| 20260505073037 | 45 | 0 | 0.0 | 1.0 | 0.00 | 0.00 | 0.00 | 79 | 1013.7 |
| 20260505072513 | 46 | 294 | 0.0 | 1.0 | 0.00 | 0.00 | 0.00 | 78 | 1013.8 |
| 20260505072012 | 46 | 0 | 0.0 | 1.0 | 0.00 | 0.00 | 0.00 | 78 | 1013.7 |
| 20260505071529 | 47 | 0 | 0.0 | 1.0 | 0.00 | 0.00 | 0.00 | 77 | 1013.7 |
| 20260505071010 | 47 | 0 | 0.0 | 1.0 | 0.00 | 0.00 | 0.00 | 76 | 1013.7 |
| 20260505070513 | 48 | 0 | 0.0 | 0.0 | 0.00 | 0.00 | 0.00 | 76 | 1013.7 |
| 20260505070032 | 48 | 0 | 0.0 | 0.0 | 0.00 | 0.00 | 0.00 | 76 | 1013.7 |
| 20260505065512 | 49 | 0 | 0.0 | 1.0 | 0.00 | 0.00 | 0.00 | 75 | 1013.6 |
| 20260505065011 | 49 | 0 | 0.0 | 1.0 | 0.00 | 0.00 | 0.00 | 75 | 1013.5 |
| 20260505064532 | 50 | 0 | 0.0 | 1.0 | 0.00 | 0.00 | 0.00 | 74 | 1013.5 |
| 20260505064012 | 50 | 0 | 0.0 | 1.0 | 0.00 | 0.00 | 0.00 | 73 | 1013.4 |
| 20260505063510 | 50 | 294 | 0.0 | 1.0 | 0.00 | 0.00 | 0.00 | 72 | 1013.3 |
| 20260505063030 | 51 | 0 | 0.0 | 1.0 | 0.00 | 0.00 | 0.00 | 72 | 1013.3 |
| 20260505062519 | 51 | 0 | 0.0 | 2.0 | 0.00 | 0.00 | 0.00 | 71 | 1013.2 |
| 20260505062014 | 52 | 0 | 0.0 | 2.0 | 0.00 | 0.00 | 0.00 | 71 | 1013.2 |
| 20260505061531 | 52 | 0 | 0.0 | 3.0 | 0.00 | 0.00 | 0.00 | 70 | 1013.4 |
| 20260505061016 | 52 | 0 | 0.0 | 3.0 | 0.00 | 0.00 | 0.00 | 70 | 1013.2 |
| 20260505060514 | 53 | 0 | 0.0 | 5.0 | 0.00 | 0.00 | 0.00 | 70 | 1013.2 |
| 20260505060034 | 53 | 296 | 2.0 | 5.0 | 0.00 | 0.00 | 0.00 | 69 | 1013.2 |
| 20260505055515 | 53 | 276 | 1.0 | 5.0 | 0.00 | 0.00 | 0.00 | 69 | 1013.3 |
| 20260505055012 | 53 | 0 | 2.0 | 5.0 | 0.00 | 0.00 | 0.00 | 68 | 1013.3 |
| 20260505054538 | 53 | 360 | 1.0 | 6.0 | 0.00 | 0.00 | 0.00 | 68 | 1013.4 |
| 20260505054017 | 54 | 265 | 1.0 | 9.0 | 0.00 | 0.00 | 0.00 | 67 | 1013.3 |
| 20260505053512 | 54 | 306 | 1.0 | 10.0 | 0.00 | 0.00 | 0.00 | 67 | 1013.4 |
| 20260505053039 | 54 | 285 | 3.0 | 10.0 | 0.00 | 0.00 | 0.00 | 67 | 1013.4 |
| 20260505052513 | 54 | 302 | 3.0 | 9.0 | 0.00 | 0.00 | 0.00 | 67 | 1013.4 |
| 20260505052015 | 54 | 317 | 1.0 | 3.0 | 0.00 | 0.00 | 0.00 | 66 | 1013.5 |
| 20260505051535 | 55 | 0 | 1.0 | 4.0 | 0.00 | 0.00 | 0.00 | 66 | 1013.6 |
| 20260505051014 | 55 | 71 | 1.0 | 6.0 | 0.00 | 0.00 | 0.00 | 66 | 1013.4 |
| 20260505050517 | 55 | 68 | 1.0 | 8.0 | 0.00 | 0.00 | 0.00 | 65 | 1013.2 |
| 20260505041529 | 57 | 329 | 3.0 | 13.0 | 0.00 | 0.00 | 0.00 | 62 | 1012.4 |
| 20260505041014 | 57 | 277 | 4.0 | 13.0 | 0.00 | 0.00 | 0.00 | 62 | 1012.4 |
| 20260505040513 | 58 | 297 | 3.0 | 14.0 | 0.00 | 0.00 | 0.00 | 62 | 1012.4 |
| 20260505040029 | 58 | 360 | 4.0 | 14.0 | 0.00 | 0.00 | 0.00 | 61 | 1012.3 |
| 20260505035513 | 58 | 291 | 3.0 | 8.0 | 0.00 | 0.00 | 0.00 | 61 | 1012.2 |
| 20260505035010 | 58 | 304 | 4.0 | 9.0 | 0.00 | 0.00 | 0.00 | 61 | 1012.1 |
| 20260505034530 | 59 | 297 | 3.0 | 11.0 | 0.00 | 0.00 | 0.00 | 60 | 1012.3 |
| 20260505034013 | 59 | 285 | 4.0 | 13.0 | 0.00 | 0.00 | 0.00 | 59 | 1012.2 |
| 20260505033514 | 59 | 261 | 2.0 | 13.0 | 0.00 | 0.00 | 0.00 | 58 | 1012.1 |
| 20260505033044 | 60 | 296 | 5.0 | 13.0 | 0.00 | 0.00 | 0.00 | 58 | 1012.1 |
| 20260505032510 | 60 | 258 | 2.0 | 11.0 | 0.00 | 0.00 | 0.00 | 57 | 1011.9 |
| 20260505032013 | 60 | 313 | 3.0 | 11.0 | 0.00 | 0.00 | 0.00 | 56 | 1011.8 |
| 20260505031530 | 61 | 290 | 4.0 | 14.0 | 0.00 | 0.00 | 0.00 | 55 | 1011.9 |
| 20260505031010 | 61 | 302 | 5.0 | 14.0 | 0.00 | 0.00 | 0.00 | 55 | 1011.7 |
| 20260505030513 | 61 | 309 | 5.0 | 14.0 | 0.00 | 0.00 | 0.00 | 54 | 1011.7 |
| 20260505030030 | 62 | 279 | 5.0 | 14.0 | 0.00 | 0.00 | 0.00 | 53 | 1011.6 |
| 20260505025513 | 62 | 306 | 4.0 | 14.0 | 0.00 | 0.00 | 0.00 | 53 | 1011.6 |
| 20260505025012 | 63 | 218 | 2.0 | 11.0 | 0.00 | 0.00 | 0.00 | 52 | 1011.5 |
| 20260505024531 | 63 | 246 | 3.0 | 11.0 | 0.00 | 0.00 | 0.00 | 51 | 1011.5 |
| 20260505024013 | 64 | 290 | 3.0 | 14.0 | 0.00 | 0.00 | 0.00 | 50 | 1011.4 |
| 20260505023513 | 64 | 311 | 2.0 | 14.0 | 0.00 | 0.00 | 0.00 | 50 | 1011.4 |
| 20260505023028 | 64 | 327 | 6.0 | 18.0 | 0.00 | 0.00 | 0.00 | 49 | 1011.5 |
| 20260505022515 | 65 | 302 | 5.0 | 18.0 | 0.00 | 0.00 | 0.00 | 48 | 1011.3 |
| 20260505022013 | 66 | 304 | 7.0 | 16.0 | 0.00 | 0.00 | 0.00 | 47 | 1011.3 |
| 20260505021530 | 66 | 298 | 5.0 | 14.0 | 0.00 | 0.00 | 0.00 | 47 | 1011.2 |
| 20260505021009 | 67 | 309 | 7.0 | 14.0 | 0.00 | 0.00 | 0.00 | 47 | 1011.2 |
| 20260505020510 | 67 | 261 | 5.0 | 13.0 | 0.00 | 0.00 | 0.00 | 46 | 1011.2 |
| 20260505020030 | 67 | 259 | 5.0 | 12.0 | 0.00 | 0.00 | 0.00 | 47 | 1011.2 |
| 20260505015511 | 67 | 275 | 5.0 | 11.0 | 0.00 | 0.00 | 0.00 | 47 | 1011.2 |
| 20260505015010 | 67 | 303 | 4.0 | 17.0 | 0.00 | 0.00 | 0.00 | 47 | 1011.1 |
| 20260505014533 | 68 | 279 | 6.0 | 17.0 | 0.00 | 0.00 | 0.00 | 46 | 1011.2 |